Theta_e
315 315 316 317 316 316 316 317 316 316 317 316 316 316 315 316 314 307 300 308 312 315 313 303 302 302 302 299 299 300 295 292 295 296 299 306 304 309 314 311 314 320 320 323 328
315 316 316 316 316 316 316 316 316 316 316 316 316 315 315 315 306 301 309 313 315 313 301 298 297 300 297 296 297 293 291 292 299 300 300 303 303 304 306 311 311 314 323 326 326
316 316 316 316 316 316 316 316 315 315 315 316 315 314 315 312 300 301 311 311 311 309 302 302 301 299 294 296 294 293 288 293 294 297 298 298 300 304 302 303 310 310 320 322 323
316 316 315 315 315 315 314 314 315 315 315 315 314 314 314 308 287 304 308 307 309 305 300 300 298 293 291 290 295 289 293 293 293 295 294 294 301 299 300 304 310 314 318 322 321
315 314 314 313 313 313 313 313 313 313 314 313 313 314 308 298 297 306 305 306 304 302 298 297 294 294 289 291 293 290 292 294 294 294 293 294 293 296 297 301 308 312 321 322 320
313 313 312 312 312 313 313 313 313 313 313 313 313 313 303 291 306 306 305 304 302 300 298 298 295 295 291 290 289 292 292 292 294 294 294 292 292 294 296 304 304 310 314 323 321
311 312 312 312 312 312 313 313 312 312 312 313 313 309 299 296 306 306 305 302 303 301 296 299 299 295 293 288 292 292 288 290 291 292 291 293 288 289 295 300 300 304 310 318 322
312 312 312 312 312 312 313 312 312 310 311 311 312 306 294 305 304 302 303 300 302 302 301 301 301 296 293 294 290 286 286 280 288 291 291 290 282 290 294 297 298 302 306 313 315
312 312 312 312 313 313 311 312 312 308 311 310 307 301 292 306 299 301 302 297 299 300 300 300 299 292 292 286 282 284 278 280 283 290 290 288 284 291 294 293 295 302 305 309 314
312 312 312 312 312 312 311 312 309 306 306 305 302 294 298 292 298 300 301 300 296 296 295 294 292 287 287 283 273 277 278 281 281 287 288 286 286 290 292 292 291 296 303 306 310
311 311 310 311 311 310 308 304 295 296 295 291 291 291 293 298 300 297 299 295 294 292 286 290 285 281 284 285 285 283 281 280 283 287 285 283 284 287 291 292 291 293 298 304 308
310 309 309 310 309 309 306 295 295 296 287 294 295 294 296 298 290 294 298 290 289 284 287 284 280 286 288 287 285 283 280 279 283 286 285 283 282 286 288 289 291 292 299 302 306
309 310 309 309 309 306 300 297 303 301 287 291 294 291 293 295 289 290 293 290 286 283 284 281 283 288 285 283 282 282 280 280 280 284 285 283 280 283 287 289 291 293 297 305 306
308 309 309 309 303 302 297 301 304 301 283 287 288 291 293 293 288 294 295 291 287 282 283 283 287 285 284 282 284 278 286 284 282 280 274 283 271 280 284 286 289 291 293 297 305
308 308 307 307 301 298 299 302 303 298 271 285 286 297 293 288 289 290 295 291 283 283 284 281 283 283 281 282 285 280 286 283 283 280 278 278 274 278 284 283 286 289 292 295 300
309 307 306 304 303 301 303 301 297 282 271 280 287 284 285 287 287 289 289 292 290 285 285 283 288 285 283 285 285 286 283 283 283 279 272 277 276 275 279 283 287 290 292 295 299
308 305 303 303 296 302 301 295 281 274 283 278 280 284 283 282 283 285 283 282 280 276 276 280 281 286 287 282 285 285 281 273 271 271 269 280 276 278 283 286 288 289 291 295 298
306 304 303 301 301 301 298 288 272 275 277 284 282 283 280 282 281 282 280 278 284 281 276 271 270 281 286 282 280 279 280 270 266 264 268 279 270 278 286 288 290 292 294 296 298
305 305 303 301 301 299 292 280 275 278 282 280 281 277 277 281 280 279 278 279 282 282 273 272 273 283 284 285 285 282 278 284 275 274 272 274 280 285 288 288 289 290 293 295 298
300 299 299 300 300 296 285 279 277 283 283 282 275 278 272 276 276 276 277 282 281 283 283 277 271 280 284 286 286 283 285 277 275 269 269 275 279 280 287 286 290 289 290 297 300
300 291 299 299 298 290 279 277 279 285 286 280 278 276 277 276 277 275 276 281 283 281 282 280 277 276 281 280 279 283 281 282 281 278 270 270 279 285 290 292 293 293 295 298 301
298 284 299 298 285 282 280 277 284 283 287 284 283 280 278 278 275 276 276 279 284 282 277 281 277 271 275 282 286 284 280 281 276 274 277 275 276 287 289 293 295 298 300 301 302
287 293 298 296 279 281 283 281 282 282 282 283 281 282 281 274 273 276 278 283 283 281 279 281 276 269 274 281 285 279 280 281 281 281 278 276 280 287 288 291 293 295 296 296 297
292 282 287 289 287 282 279 279 277 285 284 284 283 284 277 272 278 273 277 281 283 282 285 283 277 274 269 273 277 276 277 278 277 276 275 278 277 281 284 288 290 291 292 293 293
291 282 280 280 282 282 281 281 278 277 284 284 280 278 278 274 275 271 278 279 282 284 282 280 274 276 277 278 278 276 275 277 273 274 274 278 276 279 284 288 289 290 290 290 290
288 285 281 279 282 281 281 280 279 280 280 279 275 278 277 276 277 275 278 278 277 281 279 281 274 276 275 281 279 274 275 277 274 274 277 279 276 282 284 287 287 288 288 288 288
291 288 289 283 282 280 281 280 280 282 282 283 281 279 277 278 282 282 283 282 281 278 277 278 276 274 271 278 279 273 273 275 275 275 275 272 279 280 277 279 282 285 287 287 288
Wind_Speed
8 9 9 9 9 10 11 12 13 13 14 14 16 17 18 19 22 16 10 4 4 11 16 13 10 11 10 10 12 12 9 16 24 21 18 17 18 16 15 11 14 3 7 7 18
7 8 7 8 9 9 10 11 12 13 14 14 15 16 17 18 17 16 4 3 6 12 12 13 14 12 7 11 6 9 11 19 15 16 16 11 14 19 14 6 21 4 9 18 14
7 8 8 9 10 11 11 13 13 13 14 14 14 15 15 18 12 4 4 4 5 10 10 12 11 12 10 10 11 13 19 15 18 20 21 17 19 13 16 12 18 8 17 16 14
8 8 9 10 11 12 13 14 14 14 13 14 14 15 17 10 7 4 3 4 8 11 11 10 9 10 10 11 13 16 17 17 17 17 18 17 16 15 17 15 23 15 8 19 18
9 8 9 10 11 13 14 14 15 15 14 13 13 12 10 7 8 6 1 6 10 6 9 10 10 11 10 12 15 16 15 17 16 16 17 16 17 15 25 21 23 22 4 20 14
8 9 10 11 12 14 16 16 17 17 15 13 11 9 9 11 3 4 5 7 10 9 10 10 9 11 11 14 14 13 18 18 18 16 14 17 18 17 18 14 20 16 7 11 14
8 9 10 12 14 16 18 19 19 18 16 13 10 8 11 14 11 11 8 8 7 10 11 11 11 9 9 15 15 15 16 15 15 15 18 16 23 29 19 17 22 21 16 9 14
8 9 11 13 15 18 19 20 19 13 11 8 7 8 6 5 4 7 7 11 11 9 11 11 10 14 14 11 16 18 18 17 14 18 20 16 26 23 15 19 19 22 16 11 10
8 10 12 15 16 18 20 22 15 7 7 3 6 3 7 3 5 11 9 11 11 13 11 13 8 14 14 13 12 12 14 20 20 19 15 19 26 19 19 19 20 19 17 13 11
9 11 13 15 16 17 21 25 2 4 7 4 4 5 6 10 10 15 12 12 12 8 12 11 7 11 8 9 11 12 14 17 17 13 16 17 17 12 15 16 22 17 17 14 15
10 12 15 16 18 15 14 5 5 1 9 8 14 8 13 13 11 6 14 11 12 10 13 15 11 11 14 17 20 17 20 21 20 19 18 16 16 14 13 15 17 19 20 14 17
11 14 16 16 15 13 8 5 6 5 13 12 11 9 11 5 12 9 10 7 8 12 13 14 17 17 21 21 21 21 22 23 19 20 17 18 19 16 18 19 16 15 15 19 16
11 13 16 17 14 6 8 7 4 2 6 6 4 6 6 5 11 16 8 12 13 16 14 16 21 19 23 24 21 21 21 22 22 18 16 17 19 18 17 21 21 20 16 17 20
11 13 15 21 4 4 4 9 4 0 4 3 1 1 5 13 4 12 6 7 6 12 18 14 12 15 17 21 18 25 19 24 21 18 14 13 15 16 15 19 20 20 19 16 17
11 13 15 9 7 4 6 7 3 3 5 7 3 2 9 12 13 2 4 4 17 20 9 14 20 23 24 24 21 23 17 20 20 14 14 19 12 13 15 20 21 22 21 20 16
10 12 15 3 3 4 6 5 1 3 5 6 5 17 16 11 12 8 13 13 13 12 17 21 22 20 19 20 20 21 16 13 15 8 13 23 16 11 16 20 18 19 24 22 20
10 9 7 4 4 8 6 3 3 1 7 10 10 14 16 11 12 11 19 12 9 9 13 24 9 4 5 10 10 5 3 3 4 7 12 11 13 18 13 22 24 22 26 24 23
10 8 1 3 5 6 3 2 3 1 3 8 13 17 5 10 8 15 12 13 9 13 16 9 22 7 4 10 7 11 7 3 4 3 6 13 11 16 28 25 20 16 18 24 25
10 3 2 3 5 4 2 3 1 4 6 12 13 6 4 4 9 11 11 7 9 15 8 10 11 15 11 16 4 1 3 8 7 6 5 8 13 14 14 24 23 19 14 23 23
4 3 2 6 4 2 4 2 2 3 6 5 5 6 6 12 11 15 7 5 10 15 13 6 15 10 19 1 2 5 10 0 2 5 5 6 8 4 10 14 11 13 14 15 19
3 3 2 5 2 4 3 3 4 4 4 2 4 7 6 12 13 7 7 12 13 15 19 12 6 15 13 7 12 3 2 5 6 3 3 8 3 7 13 12 9 8 11 7 17
2 3 3 4 4 2 1 1 4 4 3 4 2 6 9 10 8 6 7 11 18 17 17 8 5 8 20 12 2 4 10 6 5 3 3 4 4 11 17 15 14 13 15 15 14
1 2 1 2 3 2 3 2 2 4 5 3 4 3 6 5 8 4 7 10 19 21 6 10 4 9 9 1 1 9 21 18 18 5 3 6 3 18 18 15 15 14 14 14 14
2 3 4 5 1 1 3 2 4 4 6 5 9 8 6 5 7 8 16 11 20 22 6 14 4 7 7 14 11 10 20 23 18 5 7 5 11 18 19 13 13 14 13 14 15
3 1 1 3 1 3 2 2 4 5 2 4 4 1 7 6 16 5 8 21 12 6 12 6 5 8 14 18 9 17 21 21 22 18 8 10 11 17 17 13 13 14 14 19 20
3 2 1 2 2 3 2 2 4 4 3 4 3 8 6 8 11 24 18 15 10 7 17 4 5 12 6 4 11 12 23 16 23 23 10 10 14 16 15 16 20 19 19 22 22
1 1 1 2 1 1 0 3 5 8 3 5 8 12 10 7 11 18 18 17 17 17 9 6 6 8 7 7 8 7 24 14 17 22 12 13 11 14 22 22 22 21 21 22 21
Wind_Direction
350 349 358 6 351 344 341 336 336 336 335 333 336 336 331 326 320 309 298 80 11 340 320 326 326 327 314 262 268 274 242 246 246 248 268 289 286 270 261 237 246 131 47 96 118
355 359 5 354 350 343 334 333 337 336 330 330 331 329 325 318 309 290 84 54 319 340 332 339 331 328 309 289 246 233 237 253 276 280 261 280 323 332 318 132 284 158 99 112 130
16 9 357 354 351 343 341 340 337 330 327 325 324 324 319 313 295 85 45 19 343 324 317 302 298 298 291 275 265 256 250 271 275 287 292 312 298 325 309 275 207 242 146 148 155
21 16 8 2 353 347 346 339 329 322 320 318 319 322 311 297 324 90 105 325 319 307 307 302 313 312 295 295 296 266 269 281 289 291 300 297 299 290 295 283 316 306 174 165 164
20 14 12 3 356 348 338 329 319 312 307 308 314 324 320 313 284 113 319 334 318 304 304 307 309 306 291 303 304 287 281 278 274 275 281 290 281 272 281 298 298 304 235 170 187
21 13 8 1 352 340 328 319 311 302 297 297 303 317 289 290 7 353 325 309 316 320 303 298 295 310 290 272 269 279 285 289 292 290 278 279 282 276 265 281 295 303 253 160 194
17 7 3 355 345 330 318 312 307 306 296 281 290 288 291 263 313 325 316 296 277 287 288 294 304 292 289 300 282 281 281 279 271 269 266 258 261 255 260 259 268 280 290 199 199
11 5 356 344 331 326 318 307 310 314 302 275 273 280 262 340 354 293 282 297 295 283 253 258 280 276 265 269 284 283 278 271 269 252 244 244 255 262 264 252 250 262 263 256 203
8 359 348 333 328 323 313 304 304 310 294 243 241 229 277 253 304 326 311 295 301 294 273 267 250 259 267 259 268 248 260 264 269 264 248 218 249 247 246 251 264 251 253 250 232
357 354 347 334 328 324 315 299 231 264 251 205 256 265 235 335 332 301 284 255 284 295 287 237 237 245 232 222 237 262 254 266 274 287 294 255 256 248 262 257 234 242 258 259 248
354 353 345 335 327 323 319 327 355 170 4 287 293 275 292 322 296 301 305 308 279 251 263 263 234 240 252 262 262 262 267 265 270 272 276 277 290 292 282 239 249 239 236 248 243
356 352 341 334 334 311 336 43 52 315 307 285 262 269 275 314 302 310 328 313 294 280 292 289 268 263 263 265 267 273 275 266 272 265 271 281 281 284 283 281 275 254 224 234 251
355 350 340 330 324 300 71 39 356 329 278 284 250 289 295 291 300 308 309 305 292 282 280 279 281 296 285 275 274 262 261 259 257 271 259 268 267 261 248 254 267 267 272 222 225
354 350 342 324 296 319 56 359 10 92 293 316 278 185 283 323 271 350 30 318 288 295 302 278 273 279 298 286 277 279 273 263 264 262 253 237 264 252 247 250 243 249 249 252 218
349 347 335 341 311 10 330 338 10 238 345 328 320 57 315 328 298 254 352 265 291 287 298 264 292 288 281 272 278 280 276 258 266 242 254 250 254 248 244 255 236 233 235 240 247
343 343 331 8 267 9 325 329 241 248 284 341 318 329 334 322 323 288 318 301 255 275 267 265 278 288 272 291 283 270 261 250 241 229 243 240 227 229 233 238 250 216 225 228 230
341 340 348 322 339 321 316 268 307 34 6 324 330 333 321 330 318 332 325 328 343 323 314 314 285 303 331 314 297 280 174 205 175 213 243 227 230 236 240 226 233 247 209 216 222
331 318 72 62 325 310 307 313 342 25 343 326 331 309 308 350 327 332 317 333 14 13 312 345 322 352 221 293 263 278 275 217 225 225 253 214 227 224 217 240 250 246 223 205 217
317 212 236 32 330 303 14 14 293 355 350 331 321 334 317 333 333 334 326 315 26 22 2 320 283 309 288 303 229 316 196 299 318 241 262 236 247 239 228 216 231 236 257 197 205
312 293 82 336 327 281 62 334 301 9 342 0 315 2 313 340 339 338 311 319 349 17 17 288 293 299 329 49 91 326 329 307 235 294 275 281 268 175 303 219 217 217 229 203 192
276 14 50 326 277 48 72 296 300 321 340 272 316 300 288 331 331 306 293 307 10 350 345 300 246 292 324 358 325 307 331 281 289 217 270 314 74 10 360 11 353 211 189 206 189
337 338 9 298 48 49 24 279 298 286 285 284 272 282 288 318 294 301 290 314 349 349 329 325 294 289 297 291 252 61 1 298 272 189 226 219 249 0 1 8 4 354 32 37 54
114 268 191 330 63 2 291 267 250 298 311 298 286 257 316 341 317 301 301 333 315 338 331 355 300 300 324 180 180 10 349 324 296 227 231 335 356 3 2 9 17 30 36 40 48
61 347 332 42 270 318 354 319 307 244 275 268 285 308 1 293 256 280 301 302 324 307 281 341 259 260 268 280 306 335 359 1 5 36 338 29 353 345 356 14 29 45 45 58 57
40 255 223 355 48 333 116 342 293 333 240 319 315 123 329 305 302 246 288 311 307 277 350 314 280 279 277 275 270 26 3 15 19 360 41 360 20 355 358 30 44 60 61 64 59
135 166 214 123 251 311 110 275 310 325 280 297 213 299 312 278 275 297 313 314 291 318 330 320 275 314 290 352 87 55 15 13 21 10 7 24 37 360 19 40 48 52 61 64 63
99 72 269 98 125 11 348 325 306 335 266 256 313 314 304 287 308 287 278 275 268 295 310 294 319 326 289 326 317 25 13 4 22 24 353 20 24 18 38 41 40 49 58 63 62